OPS 4682 DEB, 38421

Orbit data source: Space-Track

OPS 4682 DEB, 38421 is space debris in LEO originally from a launch on Sat, 03 Apr 1965 UTC launched from the Air Force Western Test Range (AFWTR). Debris objects in space refer to the collection of defunct objects orbiting the Earth. Examples of debris include non-operational satellites, rocket bodies, and fragments generated from explosions, collisions, or faulty payload assembly.

Loading next visibility...
Identifier
38421, 1965-027EA
Orbit
LEO
Country
Flag of USUS
Related business
Manufacturer
Unknown
Mission
Spacecraft
Bus & Motor
Unknown
Mass
Unknown
Launch date (UTC)
1965-04-03 (61 years ago)
Launch vehicle
Unknown
Launch site
Air Force Western Test Range (AFWTR)
Object type
Payload
Rocket body
Debris
Shape & HBR
Unknown shape, 0.1 m
Radar Cross Section
Small (<0.1 m²)

Expand to show TLE details & history
Last TLE update: 3 days ago

TLE from 3 days ago
0 OPS 4682 DEB
1 38421U 65027EA  25300.42881628  .00001165  00000-0  33400-2 0  9992
2 38421  90.2577   3.4169 0036227 197.6597 162.3273 13.09605012638151
Epoch: 2025-10-27T10:17Z
TLE epoch observation values (Epoch: 2025-10-27T10:17:29.726Z)
Latitude
-0.00011°
Longitude
173.01225°
Altitude
1,253.839 km
Speed
7.216 km/s
True Right ascension
00h 13m 40s
True Declination
0° 00' 00"
Sunlit
Object was in full shadow at epoch
Visualization orbit readout
Latitude
Unknown
Longitude
Unknown
Altitude
Unknown
Speed
Unknown
Apparent Right ascension
Unknown
Apparent Declination
Unknown
Sunlit
N/A
Visualization observer readout
Local Sidereal Time
22:27:20
Azimuth
Unknown
Elevation
Unknown
Doppler factor
Unknown
Orbital elements
Apogee altitude
1,249.329 km
Perigee altitude
1,194.264 km
Semi-major axis
7,599.934 km
Eccentricity
0.00362
Inclination
90.2577°
RAAN
3.4169°
Arg. of periapsis
197.6597°
True anomaly
162.45278°
Mean anomaly
162.3273°
Eccentric anomaly
162.3901°
Mean motion
3.27588 °/min
Orbital period
109.89 mins
BSTAR
0.00334
Loading maneuver chart data...
Computing Atmospheric mass density...
Loading historical data...
Loading historical data...
Loading historical data...
Loading historical data...
Loading historical data...
Loading historical data...
Loading historical data...

Documentation

Showing up to 5 results
|